Location: Unspecified
(42.3650°N, 71.1030°W)
Time: 05:17:14
(UTC+00:00)

Explorer 11/Cluster Stage 4 - Pass Details

Date: 26 June 2024
Orbit: 465 x 1216 km, 28.8° (Epoch: 13 July)

Event Time Altitude Azimuth Distance (km) Brightness Sun altitude
Rises 00:26:22 0° 238° (WSW) 3,992 10.5 -1.0°
Reaches altitude 10° 00:29:33 10° 227° (SW) 3,095 9.8 -1.5°
Maximum altitude 00:35:59 28° 172° (S) 2,094 8.4 -2.4°
Drops below altitude 10° 00:42:28 10° 118° (ESE) 3,121 9.0 -3.4°
Enters shadow 00:44:50 - 109° (ESE) 3,778 9.4 -3.8°
Sets 00:45:42 0° 107° (ESE) 4,030 - -3.9°
